Regional Weather Roundup
Issued by NWS Goodland, KS

Home | Current Version | Previous Version | Graphics & Text | Print | Product List | Glossary On
Versions: 1 2 3 4 5 6 7 8 9 10 11 12 13 14 15 16 17 18 19 20 21 22 23 24 25 26 27 28 29 30 31 32 33 34 35 36 37 38 39 40 41 42 43 44 45 46 47 48 49 50
000
ASUS43 KGLD 191908
RWRGLD

GOODLAND FORECAST AREA HOURLY WEATHER ROUNDUP
NATIONAL WEATHER SERVICE GOODLAND KS
100 PM MDT SUN APR 19 2015

...OFFICIAL OBSERVATIONS...

CITY           SKY/WX    TMP DP  RH WIND       PRES   REMARKS
GOODLAND KS    CLOUDY    47  29  49 N28G37    30.03F
HILL CITY KS   CLOUDY    52  33  48 N24G35    29.97S
IMPERIAL NEB   CLOUDY    49  26  41 N23G35    30.02F
MCCOOK NEB     PTSUNNY   56  26  31 N31G37    29.97F
AKRON CO       CLOUDY    44  22  41 N25G37    30.08F
BURLINGTON CO  PTSUNNY   49  26  41 NW26G36   30.05F
LIMON CO       MOSUNNY   47  26  44 N26G33    30.07F
$$

...UNOFFICIAL OBSERVATIONS...

CITY           SKY/WX    TMP DP  RH WIND       PRES   REMARKS
COLBY KS       CLOUDY    52  34  50 NW28G37   30.00F
GOVE KS          N/A     53  32  45 MISG        N/A
LENORA KS        N/A     51  32  48 MISG        N/A
NORTON KS      CLOUDY    52  32  46 N15       29.94F
SHARON SPRINGS   N/A     50  34  54 MISG        N/A
TRIBUNE KS     PTSUNNY   54  37  54 N30G39    30.03F
KIT CARSON CO    N/A     48  30  49 MISG        N/A
YUMA CO          N/A     45  25  45 N22G35      N/A
$$


USA.gov is the U.S. government's official web portal to all federal, state and local government web resources and services.